OMD471 KEWR-KFAT

Flight info

Callsign OMD471
Flight time 5h 8m
Altitude 40000
Route ELIOT PSB J60 JOT J146 LNK J60 DBL J80 MLF J58 ILC TTE
Aircraft B77W/H-SDE1E2E3FGHIJ2J3J4J5M1RWXY/LB1D1

Departure

Time 2026-05-08 19:18
Airport Newark Liberty International Airport (KEWR)

Arrival

Time 2026-05-09 00:26
Airport Fresno Yosemite International Airport (KFAT)
Time Latitude Longitude Altitude Speed Heading
2026-05-08 18:54 40.70452 -74.16751 26 ft 0 kts 66°
2026-05-08 19:14 40.70435 -74.16679 27 ft 70 kts 185°
2026-05-08 19:14 40.70431 -74.16676 27 ft 4 kts 185°
2026-05-08 19:14 40.70395 -74.16678 27 ft 5 kts 178°
2026-05-08 19:15 40.70356 -74.16676 27 ft 6 kts 178°
2026-05-08 19:15 40.70309 -74.16668 30 ft 8 kts 160°
2026-05-08 19:15 40.70284 -74.16628 29 ft 3 kts 89°
2026-05-08 19:15 40.70285 -74.16593 29 ft 5 kts 89°
2026-05-08 19:16 40.70286 -74.16538 27 ft 7 kts 87°
2026-05-08 19:16 40.70284 -74.16464 26 ft 9 kts 93°
2026-05-08 19:16 40.70282 -74.16382 26 ft 9 kts 89°
2026-05-08 19:16 40.70307 -74.16301 26 ft 10 kts 58°
2026-05-08 19:17 40.70311 -74.16225 27 ft 7 kts 121°
2026-05-08 19:17 40.70253 -74.16222 25 ft 19 kts 201°
2026-05-08 19:17 40.69892 -74.16456 20 ft 118 kts 207°
2026-05-08 19:17 40.68787 -74.17123 399 ft 210 kts 208°
2026-05-08 19:18 40.67455 -74.17974 1633 ft 205 kts 217°
2026-05-08 19:18 40.66222 -74.18909 2132 ft 223 kts 202°
2026-05-08 19:18 40.64566 -74.18798 2932 ft 251 kts 173°
2026-05-08 19:18 40.62834 -74.18698 3861 ft 248 kts 202°
2026-05-08 19:19 40.61412 -74.19867 5064 ft 243 kts 230°
2026-05-08 19:19 40.60590 -74.21782 6257 ft 242 kts 257°
2026-05-08 19:19 40.60473 -74.23979 7541 ft 242 kts 276°
2026-05-08 19:19 40.60890 -74.26125 8740 ft 245 kts 285°
2026-05-08 19:20 40.61413 -74.28269 10000 ft 247 kts 287°
2026-05-08 19:20 40.61586 -74.28965 10379 ft 248 kts 287°
2026-05-08 19:20 40.62546 -74.32800 11432 ft 290 kts 288°
2026-05-08 19:20 40.63214 -74.35477 11737 ft 323 kts 288°
2026-05-08 19:21 40.63925 -74.38340 12759 ft 331 kts 288°
2026-05-08 19:21 40.64641 -74.41244 14027 ft 334 kts 288°
2026-05-08 19:21 40.65362 -74.44177 15126 ft 339 kts 288°
2026-05-08 19:21 40.66088 -74.47146 16280 ft 342 kts 288°
2026-05-08 19:22 40.66819 -74.50147 17442 ft 347 kts 288°
2026-05-08 19:22 40.67560 -74.53199 18494 ft 352 kts 288°
2026-05-08 19:22 40.68298 -74.56249 19447 ft 357 kts 288°
2026-05-08 19:22 40.69058 -74.59392 20390 ft 361 kts 288°
2026-05-08 19:23 40.69824 -74.62570 21310 ft 366 kts 287°
2026-05-08 19:23 40.70599 -74.65786 22249 ft 370 kts 287°
2026-05-08 19:23 40.71382 -74.69043 23158 ft 375 kts 287°
2026-05-08 19:23 40.72175 -74.72346 23938 ft 380 kts 287°
2026-05-08 19:24 40.72975 -74.75687 24672 ft 383 kts 286°
2026-05-08 19:24 40.73619 -74.79066 25395 ft 387 kts 281°
2026-05-08 19:24 40.74020 -74.82595 26103 ft 391 kts 279°
2026-05-08 19:24 40.74424 -74.86158 26780 ft 395 kts 279°
2026-05-08 19:25 40.74845 -74.89757 27440 ft 399 kts 279°
2026-05-08 19:25 40.75275 -74.93386 28107 ft 402 kts 279°
2026-05-08 19:25 40.75710 -74.97050 28730 ft 405 kts 279°
2026-05-08 19:25 40.76147 -75.00735 29302 ft 409 kts 279°
2026-05-08 19:26 40.76587 -75.04459 29832 ft 412 kts 279°
2026-05-08 19:26 40.77027 -75.08203 30372 ft 412 kts 279°
2026-05-08 19:26 40.77464 -75.11930 31041 ft 409 kts 279°
2026-05-08 19:26 40.77896 -75.15623 31743 ft 406 kts 279°
2026-05-08 19:27 40.78322 -75.19287 32377 ft 403 kts 279°
2026-05-08 19:27 40.78746 -75.22943 32967 ft 402 kts 279°
2026-05-08 19:27 40.79163 -75.26544 33530 ft 401 kts 279°
2026-05-08 19:27 40.79582 -75.30176 34100 ft 399 kts 279°
2026-05-08 19:28 40.79998 -75.33799 34524 ft 399 kts 279°
2026-05-08 19:28 40.80414 -75.37418 34878 ft 400 kts 279°
2026-05-08 19:28 40.80831 -75.41056 35249 ft 401 kts 279°
2026-05-08 19:28 40.81246 -75.44693 35637 ft 401 kts 279°
2026-05-08 19:29 40.81659 -75.48329 36012 ft 401 kts 279°
2026-05-08 19:29 40.82074 -75.51982 36358 ft 402 kts 278°
2026-05-08 19:29 40.82483 -75.55598 36681 ft 403 kts 278°
2026-05-08 19:29 40.82897 -75.59270 37000 ft 404 kts 278°
2026-05-08 19:30 40.83310 -75.62941 37322 ft 405 kts 278°
2026-05-08 19:30 40.83722 -75.66623 37651 ft 405 kts 278°
2026-05-08 19:30 40.84136 -75.70322 37943 ft 406 kts 278°
2026-05-08 19:30 40.84549 -75.74024 38239 ft 407 kts 278°
2026-05-08 19:31 40.84961 -75.77735 38520 ft 408 kts 277°
2026-05-08 19:31 40.85372 -75.81445 38782 ft 408 kts 277°
2026-05-08 19:31 40.85777 -75.85105 39004 ft 409 kts 277°
2026-05-08 19:31 40.86189 -75.88837 39234 ft 409 kts 277°
2026-05-08 19:32 40.86597 -75.92558 39464 ft 409 kts 277°
2026-05-08 19:32 40.87005 -75.96285 39741 ft 410 kts 277°
2026-05-08 19:32 40.87274 -75.98754 39883 ft 410 kts 277°
2026-05-08 19:33 40.88093 -76.06286 39959 ft 415 kts 277°
2026-05-08 19:33 40.88907 -76.13820 39973 ft 412 kts 277°
2026-05-08 19:34 40.89707 -76.21271 39972 ft 407 kts 277°
2026-05-08 19:34 40.90494 -76.28639 39965 ft 406 kts 277°
2026-05-08 19:35 40.91278 -76.36029 39962 ft 406 kts 277°
2026-05-08 19:35 40.92059 -76.43438 39949 ft 407 kts 277°
2026-05-08 19:36 40.92836 -76.50863 39956 ft 408 kts 277°
2026-05-08 19:36 40.93611 -76.58308 39953 ft 409 kts 277°
2026-05-08 19:37 40.94379 -76.65737 39959 ft 409 kts 277°
2026-05-08 19:37 40.95147 -76.73215 39949 ft 410 kts 277°
2026-05-08 19:38 40.95909 -76.80678 39957 ft 410 kts 277°
2026-05-08 19:38 40.96666 -76.88148 39941 ft 410 kts 277°
2026-05-08 19:39 40.97419 -76.95618 39939 ft 409 kts 277°
2026-05-08 19:39 40.98164 -77.03069 39936 ft 408 kts 277°
2026-05-08 19:40 40.98903 -77.10502 39939 ft 407 kts 277°
2026-05-08 19:40 40.99632 -77.17881 39938 ft 406 kts 277°
2026-05-08 19:41 41.00359 -77.25304 39942 ft 406 kts 277°
2026-05-08 19:41 41.01082 -77.32720 39938 ft 406 kts 277°
2026-05-08 19:42 41.01799 -77.40134 39929 ft 405 kts 276°
2026-05-08 19:42 41.02510 -77.47534 39940 ft 405 kts 276°
2026-05-08 19:43 41.03218 -77.54950 39942 ft 405 kts 276°
2026-05-08 19:43 41.03916 -77.62315 39945 ft 405 kts 276°
2026-05-08 19:44 41.04614 -77.69741 39949 ft 405 kts 276°
2026-05-08 19:44 41.05306 -77.77152 39946 ft 405 kts 276°
2026-05-08 19:45 41.05994 -77.84568 39948 ft 405 kts 276°
2026-05-08 19:45 41.06679 -77.91990 39944 ft 405 kts 276°
2026-05-08 19:46 41.07357 -77.99409 39943 ft 406 kts 276°
2026-05-08 19:46 41.08367 -78.10553 39950 ft 406 kts 276°
2026-05-08 19:47 41.09032 -78.17949 39943 ft 406 kts 276°
2026-05-08 19:47 41.09695 -78.25388 39947 ft 406 kts 276°
2026-05-08 19:48 41.10353 -78.32832 39943 ft 406 kts 276°
2026-05-08 19:48 41.11006 -78.40268 39949 ft 406 kts 276°
2026-05-08 19:49 41.11654 -78.47703 39949 ft 406 kts 276°
2026-05-08 19:49 41.12293 -78.55085 39945 ft 406 kts 276°
2026-05-08 19:50 41.12935 -78.62566 39947 ft 406 kts 276°
2026-05-08 19:50 41.13569 -78.70004 39956 ft 406 kts 276°
2026-05-08 19:51 41.14193 -78.77397 39937 ft 406 kts 276°
2026-05-08 19:51 41.14818 -78.84848 39932 ft 406 kts 276°
2026-05-08 19:52 41.15439 -78.92300 39938 ft 406 kts 276°
2026-05-08 19:52 41.16054 -78.99755 39933 ft 406 kts 275°
2026-05-08 19:53 41.16665 -79.07215 39942 ft 406 kts 275°
2026-05-08 19:53 41.17267 -79.14629 39946 ft 406 kts 275°
2026-05-08 19:54 41.17868 -79.22080 39953 ft 406 kts 275°
2026-05-08 19:54 41.18464 -79.29544 39960 ft 406 kts 275°
2026-05-08 19:55 41.19054 -79.36982 39958 ft 405 kts 275°
2026-05-08 19:55 41.19640 -79.44442 39968 ft 405 kts 275°
2026-05-08 19:56 41.20219 -79.51881 39969 ft 404 kts 275°
2026-05-08 19:56 41.20790 -79.59262 39958 ft 404 kts 275°
2026-05-08 19:57 41.21360 -79.66696 39974 ft 404 kts 275°
2026-05-08 19:57 41.21924 -79.74116 39949 ft 404 kts 275°
2026-05-08 19:58 41.22486 -79.81567 39951 ft 405 kts 275°
2026-05-08 19:58 41.23039 -79.88985 39950 ft 405 kts 275°
2026-05-08 19:59 41.23590 -79.96433 39960 ft 405 kts 275°
2026-05-08 19:59 41.24136 -80.03880 39961 ft 405 kts 275°
2026-05-08 20:00 41.24677 -80.11326 39959 ft 405 kts 275°
2026-05-08 20:00 41.25214 -80.18769 39977 ft 404 kts 275°
2026-05-08 20:01 41.25744 -80.26207 39959 ft 404 kts 275°
2026-05-08 20:01 41.26270 -80.33630 39973 ft 403 kts 275°
2026-05-08 20:02 41.26789 -80.41043 39959 ft 402 kts 275°
2026-05-08 20:02 41.27303 -80.48452 39945 ft 402 kts 274°
2026-05-08 20:03 41.27809 -80.55808 39970 ft 402 kts 274°
2026-05-08 20:03 41.28314 -80.63217 39915 ft 402 kts 274°
2026-05-08 20:04 41.28814 -80.70628 39934 ft 401 kts 274°
2026-05-08 20:04 41.29305 -80.77977 39918 ft 401 kts 274°
2026-05-08 20:05 41.29794 -80.85369 39932 ft 401 kts 274°
2026-05-08 20:05 41.30279 -80.92763 39915 ft 401 kts 274°
2026-05-08 20:06 41.30758 -81.00148 39942 ft 401 kts 274°
2026-05-08 20:06 41.31232 -81.07537 39938 ft 401 kts 274°
2026-05-08 20:07 41.31703 -81.14936 39940 ft 401 kts 274°
2026-05-08 20:07 41.32165 -81.22273 39940 ft 400 kts 274°
2026-05-08 20:08 41.32625 -81.29659 39944 ft 401 kts 274°
2026-05-08 20:08 41.33080 -81.37052 39941 ft 400 kts 274°
2026-05-08 20:09 41.33531 -81.44435 39945 ft 400 kts 274°
2026-05-08 20:09 41.33976 -81.51813 39943 ft 400 kts 274°
2026-05-08 20:10 41.34414 -81.59148 39923 ft 400 kts 274°
2026-05-08 20:10 41.34849 -81.66510 39922 ft 399 kts 273°
2026-05-08 20:11 41.35279 -81.73868 39915 ft 398 kts 273°
2026-05-08 20:11 41.35704 -81.81235 39916 ft 398 kts 273°
2026-05-08 20:12 41.36125 -81.88598 39918 ft 398 kts 273°
2026-05-08 20:12 41.36540 -81.95957 39912 ft 398 kts 273°
2026-05-08 20:13 41.36949 -82.03271 39949 ft 399 kts 273°
2026-05-08 20:13 41.37356 -82.10652 39954 ft 399 kts 273°
2026-05-08 20:14 41.37759 -82.18037 39947 ft 400 kts 273°
2026-05-08 20:14 41.38157 -82.25421 39939 ft 400 kts 273°
2026-05-08 20:15 41.38550 -82.32815 39947 ft 400 kts 273°
2026-05-08 20:15 41.38936 -82.40149 39953 ft 400 kts 273°
2026-05-08 20:16 41.39323 -82.47595 39942 ft 400 kts 272°
2026-05-08 20:16 41.39700 -82.54936 39942 ft 400 kts 272°
2026-05-08 20:17 41.40075 -82.62335 39946 ft 400 kts 272°
2026-05-08 20:17 41.40446 -82.69742 39944 ft 401 kts 272°
2026-05-08 20:18 41.40811 -82.77148 39931 ft 401 kts 272°
2026-05-08 20:18 41.41174 -82.84599 39933 ft 404 kts 272°
2026-05-08 20:19 41.41533 -82.92073 39930 ft 405 kts 272°
2026-05-08 20:19 41.41887 -82.99531 39921 ft 405 kts 272°
2026-05-08 20:20 41.42237 -83.07019 39924 ft 404 kts 272°
2026-05-08 20:20 41.42582 -83.14488 39921 ft 403 kts 272°
2026-05-08 20:21 41.42922 -83.21954 39924 ft 403 kts 272°
2026-05-08 20:21 41.43200 -83.28155 39936 ft 403 kts 272°
2026-05-08 20:22 41.43531 -83.35629 39930 ft 404 kts 272°
2026-05-08 20:22 41.43858 -83.43126 39917 ft 405 kts 272°
2026-05-08 20:23 41.44180 -83.50625 39921 ft 405 kts 272°
2026-05-08 20:23 41.44495 -83.58068 39928 ft 404 kts 272°
2026-05-08 20:24 41.44807 -83.65552 39912 ft 405 kts 272°
2026-05-08 20:24 41.45114 -83.73046 39926 ft 405 kts 272°
2026-05-08 20:25 41.45418 -83.80570 39915 ft 407 kts 272°
2026-05-08 20:25 41.45718 -83.88120 39910 ft 406 kts 272°
2026-05-08 20:26 41.46011 -83.95615 39906 ft 404 kts 272°
2026-05-08 20:26 41.46296 -84.03049 39908 ft 403 kts 271°
2026-05-08 20:27 41.46578 -84.10506 39909 ft 402 kts 271°
2026-05-08 20:27 41.46853 -84.17939 39922 ft 401 kts 271°
2026-05-08 20:28 41.47125 -84.25386 39915 ft 402 kts 271°
2026-05-08 20:28 41.47390 -84.32798 39931 ft 403 kts 271°
2026-05-08 20:29 41.47653 -84.40275 39903 ft 404 kts 271°
2026-05-08 20:29 41.47912 -84.47778 39897 ft 405 kts 271°
2026-05-08 20:30 41.48166 -84.55276 39898 ft 405 kts 271°
2026-05-08 20:30 41.48415 -84.62774 39902 ft 405 kts 271°
2026-05-08 20:31 41.48659 -84.70281 39913 ft 405 kts 271°
2026-05-08 20:31 41.48899 -84.77793 39902 ft 406 kts 271°
2026-05-08 20:32 41.49133 -84.85270 39896 ft 406 kts 271°
2026-05-08 20:32 41.49363 -84.92801 39891 ft 406 kts 271°
2026-05-08 20:33 41.49589 -85.00330 39881 ft 406 kts 271°
2026-05-08 20:33 41.49809 -85.07853 39876 ft 406 kts 271°
2026-05-08 20:34 41.50025 -85.15394 39884 ft 407 kts 271°
2026-05-08 20:35 41.50340 -85.26724 39891 ft 408 kts 271°
2026-05-08 20:35 41.50545 -85.34299 39892 ft 408 kts 271°
2026-05-08 20:36 41.50742 -85.41811 39900 ft 408 kts 271°
2026-05-08 20:36 41.50937 -85.49394 39878 ft 409 kts 271°
2026-05-08 20:37 41.51127 -85.56981 39889 ft 409 kts 271°
2026-05-08 20:37 41.51313 -85.64588 39884 ft 410 kts 271°
2026-05-08 20:38 41.51493 -85.72199 39884 ft 410 kts 270°
2026-05-08 20:38 41.51669 -85.79819 39879 ft 411 kts 270°
2026-05-08 20:39 41.51839 -85.87432 39880 ft 411 kts 270°
2026-05-08 20:39 41.52004 -85.94997 39877 ft 410 kts 270°
2026-05-08 20:40 41.52164 -86.02607 39882 ft 410 kts 270°
2026-05-08 20:40 41.52319 -86.10220 39871 ft 410 kts 270°
2026-05-08 20:41 41.52470 -86.17833 39879 ft 410 kts 270°
2026-05-08 20:41 41.52615 -86.25442 39884 ft 410 kts 270°
2026-05-08 20:42 41.52755 -86.33057 39883 ft 411 kts 270°
2026-05-08 20:42 41.52890 -86.40677 39883 ft 411 kts 270°
2026-05-08 20:43 41.53020 -86.48254 39873 ft 411 kts 270°
2026-05-08 20:43 41.53146 -86.55879 39877 ft 411 kts 270°
2026-05-08 20:44 41.53266 -86.63515 39870 ft 411 kts 270°
2026-05-08 20:44 41.53382 -86.71164 39868 ft 412 kts 270°
2026-05-08 20:45 41.53492 -86.78803 39877 ft 412 kts 270°
2026-05-08 20:45 41.53598 -86.86452 39869 ft 412 kts 270°
2026-05-08 20:46 41.53699 -86.94117 39878 ft 413 kts 270°
2026-05-08 20:46 41.53794 -87.01790 39877 ft 414 kts 270°
2026-05-08 20:47 41.53885 -87.09425 39873 ft 414 kts 270°
2026-05-08 20:47 41.53970 -87.17129 39874 ft 415 kts 270°
2026-05-08 20:48 41.54051 -87.24840 39874 ft 416 kts 270°
2026-05-08 20:48 41.54127 -87.32562 39876 ft 416 kts 270°
2026-05-08 20:49 41.54198 -87.40293 39866 ft 417 kts 270°
2026-05-08 20:49 41.54263 -87.48038 39841 ft 417 kts 270°
2026-05-08 20:50 41.54324 -87.55795 39846 ft 418 kts 270°
2026-05-08 20:50 41.54379 -87.63508 39842 ft 418 kts 270°
2026-05-08 20:51 41.54429 -87.71274 39846 ft 419 kts 270°
2026-05-08 20:51 41.54474 -87.79059 39840 ft 420 kts 270°
2026-05-08 20:52 41.54514 -87.86854 39849 ft 420 kts 270°
2026-05-08 20:52 41.54548 -87.94657 39849 ft 420 kts 269°
2026-05-08 20:53 41.54578 -88.02459 39855 ft 420 kts 269°
2026-05-08 20:53 41.54603 -88.10201 39836 ft 419 kts 269°
2026-05-08 20:54 41.54620 -88.17983 39827 ft 418 kts 269°
2026-05-08 20:54 41.54635 -88.25743 39834 ft 417 kts 269°
2026-05-08 20:55 41.54646 -88.33495 39834 ft 418 kts 269°
2026-05-08 20:55 41.54684 -88.41250 39841 ft 418 kts 269°
2026-05-08 20:56 41.54726 -88.48964 39819 ft 418 kts 269°
2026-05-08 20:56 41.54762 -88.56731 39835 ft 418 kts 269°
2026-05-08 20:57 41.54789 -88.64514 39834 ft 419 kts 269°
2026-05-08 20:57 41.54811 -88.72304 39835 ft 420 kts 269°
2026-05-08 20:58 41.54828 -88.80101 39844 ft 420 kts 269°
2026-05-08 20:58 41.54839 -88.87898 39852 ft 421 kts 269°
2026-05-08 20:59 41.54845 -88.95720 39843 ft 422 kts 269°
2026-05-08 20:59 41.54846 -89.03562 39841 ft 422 kts 269°
2026-05-08 21:00 41.54841 -89.11411 39841 ft 423 kts 269°
2026-05-08 21:00 41.54832 -89.19204 39845 ft 423 kts 269°
2026-05-08 21:01 41.54817 -89.27059 39828 ft 423 kts 269°
2026-05-08 21:01 41.54797 -89.34923 39846 ft 423 kts 269°
2026-05-08 21:02 41.54770 -89.42791 39824 ft 424 kts 269°
2026-05-08 21:02 41.54737 -89.50658 39822 ft 424 kts 269°
2026-05-08 21:03 41.54700 -89.58528 39824 ft 424 kts 269°
2026-05-08 21:03 41.54658 -89.66345 39814 ft 423 kts 269°
2026-05-08 21:04 41.54610 -89.74203 39822 ft 423 kts 269°
2026-05-08 21:04 41.54557 -89.82074 39817 ft 423 kts 269°
2026-05-08 21:05 41.54499 -89.89923 39826 ft 423 kts 269°
2026-05-08 21:05 41.54435 -89.97718 39831 ft 423 kts 269°
2026-05-08 21:06 41.54366 -90.05572 39826 ft 423 kts 269°
2026-05-08 21:06 41.54292 -90.13420 39826 ft 423 kts 269°
2026-05-08 21:07 41.54213 -90.21280 39831 ft 423 kts 269°
2026-05-08 21:07 41.54127 -90.29150 39819 ft 423 kts 269°
2026-05-08 21:08 41.54037 -90.36971 39825 ft 424 kts 269°
2026-05-08 21:08 41.53941 -90.44852 39812 ft 424 kts 269°
2026-05-08 21:09 41.53840 -90.52726 39810 ft 424 kts 269°
2026-05-08 21:09 41.53751 -90.59284 39820 ft 424 kts 269°
2026-05-08 21:10 41.53640 -90.67169 39822 ft 425 kts 269°
2026-05-08 21:10 41.53504 -90.76336 39813 ft 425 kts 269°
2026-05-08 21:11 41.53401 -90.82949 39812 ft 425 kts 269°
2026-05-08 21:11 41.53275 -90.90792 39824 ft 425 kts 268°
2026-05-08 21:12 41.53141 -90.98696 39826 ft 426 kts 268°
2026-05-08 21:12 41.53003 -91.06592 39822 ft 426 kts 268°
2026-05-08 21:13 41.52859 -91.14492 39817 ft 426 kts 268°
2026-05-08 21:13 41.52709 -91.22403 39824 ft 426 kts 268°
2026-05-08 21:14 41.52554 -91.30326 39819 ft 426 kts 268°
2026-05-08 21:14 41.52395 -91.38197 39824 ft 427 kts 268°
2026-05-08 21:15 41.52229 -91.46123 39824 ft 427 kts 268°
2026-05-08 21:15 41.52059 -91.54049 39807 ft 427 kts 268°
2026-05-08 21:16 41.51841 -91.61972 39818 ft 427 kts 265°
2026-05-08 21:16 41.51132 -91.69838 39828 ft 428 kts 263°
2026-05-08 21:17 41.50369 -91.77720 39823 ft 428 kts 263°
2026-05-08 21:17 41.49613 -91.85605 39826 ft 428 kts 263°
2026-05-08 21:18 41.48859 -91.93493 39817 ft 429 kts 263°
2026-05-08 21:18 41.48101 -92.01393 39825 ft 429 kts 263°
2026-05-08 21:19 41.47343 -92.09230 39825 ft 429 kts 263°
2026-05-08 21:19 41.46573 -92.17136 39825 ft 429 kts 263°
2026-05-08 21:20 41.45798 -92.25037 39823 ft 430 kts 263°
2026-05-08 21:20 41.45017 -92.32936 39815 ft 430 kts 263°
2026-05-08 21:21 41.44231 -92.40839 39824 ft 430 kts 263°
2026-05-08 21:21 41.43442 -92.48712 39825 ft 431 kts 263°
2026-05-08 21:22 41.42641 -92.56624 39826 ft 431 kts 263°
2026-05-08 21:22 41.41833 -92.64543 39825 ft 431 kts 263°
2026-05-08 21:23 41.41020 -92.72466 39820 ft 432 kts 263°
2026-05-08 21:23 41.40201 -92.80395 39825 ft 432 kts 263°
2026-05-08 21:24 41.39377 -92.88320 39813 ft 432 kts 263°
2026-05-08 21:24 41.38547 -92.96257 39817 ft 433 kts 263°
2026-05-08 21:25 41.37715 -93.04148 39816 ft 433 kts 263°
2026-05-08 21:25 41.36873 -93.12084 39798 ft 433 kts 263°
2026-05-08 21:26 41.36025 -93.20025 39807 ft 433 kts 263°
2026-05-08 21:26 41.35170 -93.27974 39809 ft 434 kts 263°
2026-05-08 21:27 41.34309 -93.35932 39811 ft 434 kts 263°
2026-05-08 21:27 41.33442 -93.43886 39813 ft 434 kts 263°
2026-05-08 21:28 41.32575 -93.51789 39811 ft 434 kts 263°
2026-05-08 21:28 41.31697 -93.59740 39814 ft 434 kts 263°
2026-05-08 21:29 41.30815 -93.67681 39808 ft 434 kts 263°
2026-05-08 21:29 41.29928 -93.75617 39813 ft 434 kts 263°
2026-05-08 21:30 41.29034 -93.83557 39794 ft 434 kts 263°
2026-05-08 21:30 41.28139 -93.91459 39803 ft 434 kts 263°
2026-05-08 21:31 41.27235 -93.99394 39813 ft 434 kts 263°
2026-05-08 21:31 41.26325 -94.07325 39817 ft 434 kts 263°
2026-05-08 21:32 41.25409 -94.15261 39812 ft 435 kts 262°
2026-05-08 21:32 41.24486 -94.23207 39800 ft 435 kts 263°
2026-05-08 21:33 41.23557 -94.31157 39813 ft 436 kts 263°
2026-05-08 21:33 41.22627 -94.39074 39816 ft 436 kts 263°
2026-05-08 21:34 41.21684 -94.47042 39815 ft 437 kts 262°
2026-05-08 21:34 41.20735 -94.55020 39814 ft 437 kts 262°
2026-05-08 21:35 41.19779 -94.63000 39808 ft 438 kts 263°
2026-05-08 21:35 41.18815 -94.71003 39814 ft 438 kts 263°
2026-05-08 21:36 41.17846 -94.78999 39807 ft 439 kts 263°
2026-05-08 21:36 41.16877 -94.86946 39804 ft 439 kts 262°
2026-05-08 21:37 41.15895 -94.94948 39805 ft 439 kts 262°
2026-05-08 21:37 41.14908 -95.02951 39809 ft 440 kts 263°
2026-05-08 21:38 41.13913 -95.10965 39809 ft 440 kts 263°
2026-05-08 21:38 41.12913 -95.18980 39807 ft 440 kts 263°
2026-05-08 21:39 41.11905 -95.27008 39808 ft 440 kts 263°
2026-05-08 21:39 41.10892 -95.35025 39795 ft 441 kts 263°
2026-05-08 21:40 41.09880 -95.42993 39811 ft 441 kts 263°
2026-05-08 21:40 41.08849 -95.51065 39806 ft 442 kts 263°
2026-05-08 21:41 41.07306 -95.63054 39806 ft 442 kts 263°
2026-05-08 21:41 41.06265 -95.71088 39793 ft 442 kts 263°
2026-05-08 21:42 41.05216 -95.79133 39798 ft 442 kts 263°
2026-05-08 21:42 41.04170 -95.87121 39795 ft 443 kts 263°
2026-05-08 21:43 41.03110 -95.95162 39819 ft 443 kts 263°
2026-05-08 21:43 41.02045 -96.03202 39816 ft 443 kts 263°
2026-05-08 21:44 41.00970 -96.11263 39797 ft 444 kts 263°
2026-05-08 21:44 40.99891 -96.19310 39805 ft 444 kts 263°
2026-05-08 21:45 40.98806 -96.27373 39805 ft 445 kts 263°
2026-05-08 21:45 40.97712 -96.35444 39816 ft 445 kts 263°
2026-05-08 21:46 40.96617 -96.43481 39808 ft 446 kts 263°
2026-05-08 21:46 40.95511 -96.51556 39807 ft 446 kts 263°
2026-05-08 21:47 40.94399 -96.59632 39830 ft 446 kts 263°
2026-05-08 21:47 40.93283 -96.67704 39829 ft 446 kts 263°
2026-05-08 21:48 40.92205 -96.75781 39829 ft 445 kts 265°
2026-05-08 21:48 40.91421 -96.83910 39838 ft 445 kts 266°
2026-05-08 21:49 40.90680 -96.91993 39824 ft 445 kts 266°
2026-05-08 21:49 40.89918 -97.00138 39828 ft 446 kts 266°
2026-05-08 21:50 40.89138 -97.08283 39827 ft 446 kts 266°
2026-05-08 21:50 40.88348 -97.16431 39821 ft 447 kts 266°
2026-05-08 21:51 40.87551 -97.24577 39820 ft 447 kts 266°
2026-05-08 21:51 40.86755 -97.32671 39819 ft 447 kts 266°
2026-05-08 21:52 40.85948 -97.40811 39820 ft 447 kts 266°
2026-05-08 21:52 40.85135 -97.48950 39817 ft 446 kts 266°
2026-05-08 21:53 40.84318 -97.57079 39825 ft 446 kts 266°
2026-05-08 21:53 40.83494 -97.65205 39813 ft 446 kts 266°
2026-05-08 21:54 40.82666 -97.73324 39823 ft 446 kts 266°
2026-05-08 21:54 40.81833 -97.81439 39840 ft 446 kts 266°
2026-05-08 21:55 40.80993 -97.89557 39841 ft 446 kts 266°
2026-05-08 21:56 40.79727 -98.01680 39844 ft 446 kts 266°
2026-05-08 21:56 40.78874 -98.09790 39836 ft 446 kts 266°
2026-05-08 21:57 40.78014 -98.17906 39834 ft 446 kts 266°
2026-05-08 21:57 40.77149 -98.26013 39844 ft 446 kts 266°
2026-05-08 21:58 40.76427 -98.32754 39845 ft 446 kts 266°
2026-05-08 21:58 40.75550 -98.40859 39846 ft 446 kts 267°
2026-05-08 21:59 40.74667 -98.48948 39829 ft 445 kts 267°
2026-05-08 21:59 40.73780 -98.57035 39837 ft 445 kts 266°
2026-05-08 22:00 40.72888 -98.65113 39850 ft 445 kts 266°
2026-05-08 22:00 40.71990 -98.73198 39827 ft 445 kts 267°
2026-05-08 22:01 40.71093 -98.81219 39862 ft 445 kts 267°
2026-05-08 22:01 40.70187 -98.89283 39872 ft 445 kts 267°
2026-05-08 22:02 40.69273 -98.97358 39871 ft 445 kts 267°
2026-05-08 22:02 40.68353 -99.05430 39870 ft 445 kts 267°
2026-05-08 22:03 40.67428 -99.13495 39860 ft 445 kts 267°
2026-05-08 22:03 40.66496 -99.21565 39861 ft 445 kts 267°
2026-05-08 22:04 40.65565 -99.29591 39866 ft 445 kts 267°
2026-05-08 22:04 40.64622 -99.37655 39847 ft 446 kts 267°
2026-05-08 22:05 40.63674 -99.45722 39851 ft 446 kts 267°
2026-05-08 22:05 40.62719 -99.53785 39843 ft 445 kts 267°
2026-05-08 22:06 40.61760 -99.61848 39851 ft 445 kts 267°
2026-05-08 22:06 40.60802 -99.69842 39855 ft 445 kts 267°
2026-05-08 22:07 40.59826 -99.77948 39853 ft 446 kts 267°
2026-05-08 22:07 40.58856 -99.85946 39831 ft 445 kts 267°
2026-05-08 22:08 40.57873 -99.94004 39856 ft 445 kts 267°
2026-05-08 22:08 40.56886 -100.02047 39867 ft 445 kts 267°
2026-05-08 22:09 40.55894 -100.10089 39871 ft 446 kts 267°
2026-05-08 22:09 40.54895 -100.18133 39877 ft 446 kts 267°
2026-05-08 22:10 40.53891 -100.26172 39867 ft 445 kts 267°
2026-05-08 22:10 40.52882 -100.34208 39871 ft 445 kts 267°
2026-05-08 22:11 40.51867 -100.42240 39869 ft 445 kts 267°
2026-05-08 22:11 40.50853 -100.50224 39881 ft 445 kts 267°
2026-05-08 22:12 40.49827 -100.58260 39861 ft 445 kts 267°
2026-05-08 22:12 40.48796 -100.66274 39886 ft 445 kts 267°
2026-05-08 22:13 40.47760 -100.74293 39888 ft 445 kts 267°
2026-05-08 22:13 40.46719 -100.82307 39886 ft 445 kts 267°
2026-05-08 22:14 40.45673 -100.90323 39883 ft 445 kts 266°
2026-05-08 22:14 40.44609 -100.98334 39885 ft 445 kts 266°
2026-05-08 22:15 40.43529 -101.06297 39888 ft 446 kts 266°
2026-05-08 22:15 40.42438 -101.14310 39886 ft 446 kts 266°
2026-05-08 22:16 40.41343 -101.22320 39888 ft 446 kts 266°
2026-05-08 22:16 40.40244 -101.30333 39891 ft 445 kts 266°
2026-05-08 22:17 40.39142 -101.38328 39919 ft 446 kts 266°
2026-05-08 22:17 40.38032 -101.46339 39924 ft 446 kts 266°
2026-05-08 22:18 40.36922 -101.54299 39933 ft 446 kts 266°
2026-05-08 22:18 40.35799 -101.62312 39933 ft 447 kts 266°
2026-05-08 22:19 40.34671 -101.70322 39910 ft 446 kts 266°
2026-05-08 22:19 40.33536 -101.78335 39920 ft 447 kts 266°
2026-05-08 22:20 40.32396 -101.86341 39916 ft 447 kts 266°
2026-05-08 22:20 40.31252 -101.94343 39906 ft 446 kts 266°
2026-05-08 22:21 40.30108 -102.02299 39892 ft 446 kts 266°
2026-05-08 22:21 40.28954 -102.10281 39897 ft 446 kts 266°
2026-05-08 22:22 40.27794 -102.18266 39903 ft 446 kts 266°
2026-05-08 22:22 40.26631 -102.26232 39907 ft 446 kts 266°
2026-05-08 22:23 40.25461 -102.34208 39912 ft 446 kts 265°
2026-05-08 22:23 40.24287 -102.42171 39887 ft 446 kts 265°
2026-05-08 22:24 40.23106 -102.50137 39910 ft 445 kts 265°
2026-05-08 22:24 40.21926 -102.58057 39914 ft 445 kts 265°
2026-05-08 22:25 40.20735 -102.66016 39923 ft 445 kts 265°
2026-05-08 22:25 40.19539 -102.73969 39924 ft 446 kts 265°
2026-05-08 22:26 40.18336 -102.81925 39913 ft 445 kts 265°
2026-05-08 22:26 40.17136 -102.89825 39921 ft 445 kts 265°
2026-05-08 22:27 40.15923 -102.97772 39927 ft 446 kts 265°
2026-05-08 22:27 40.14705 -103.05712 39928 ft 446 kts 265°
2026-05-08 22:28 40.13482 -103.13654 39982 ft 446 kts 264°
2026-05-08 22:28 40.12253 -103.21588 40011 ft 445 kts 264°
2026-05-08 22:29 40.11019 -103.29516 40022 ft 445 kts 264°
2026-05-08 22:29 40.09778 -103.37460 40006 ft 446 kts 264°
2026-05-08 22:30 40.08532 -103.45395 39970 ft 446 kts 264°
2026-05-08 22:30 40.07277 -103.53344 39894 ft 446 kts 264°
2026-05-08 22:31 40.06027 -103.61233 39899 ft 447 kts 264°
2026-05-08 22:31 40.04761 -103.69179 39893 ft 447 kts 264°
2026-05-08 22:32 40.03488 -103.77133 39890 ft 448 kts 264°
2026-05-08 22:32 40.02207 -103.85103 39890 ft 449 kts 264°
2026-05-08 22:33 40.00919 -103.93074 39887 ft 449 kts 264°
2026-05-08 22:33 39.99626 -104.01044 39894 ft 449 kts 264°
2026-05-08 22:34 39.98326 -104.09018 39902 ft 450 kts 264°
2026-05-08 22:34 39.97018 -104.17010 39908 ft 450 kts 264°
2026-05-08 22:35 39.95704 -104.24997 39932 ft 450 kts 264°
2026-05-08 22:35 39.94393 -104.32933 39968 ft 450 kts 264°
2026-05-08 22:36 39.93067 -104.40918 40013 ft 450 kts 263°
2026-05-08 22:36 39.91738 -104.48896 40028 ft 451 kts 263°
2026-05-08 22:37 39.90400 -104.56894 40046 ft 451 kts 263°
2026-05-08 22:37 39.89043 -104.64867 40033 ft 452 kts 263°
2026-05-08 22:38 39.87539 -104.72819 40047 ft 452 kts 262°
2026-05-08 22:38 39.85993 -104.80754 40032 ft 452 kts 262°
2026-05-08 22:39 39.84456 -104.88688 40003 ft 452 kts 262°
2026-05-08 22:39 39.82934 -104.96577 39962 ft 452 kts 262°
2026-05-08 22:40 39.81403 -105.04504 40044 ft 452 kts 262°
2026-05-08 22:40 39.79864 -105.12448 40049 ft 453 kts 262°
2026-05-08 22:41 39.78313 -105.20417 40016 ft 455 kts 262°
2026-05-08 22:41 39.76754 -105.28383 39997 ft 455 kts 262°
2026-05-08 22:42 39.75198 -105.36311 39964 ft 456 kts 262°
2026-05-08 22:42 39.73621 -105.44321 39940 ft 458 kts 261°
2026-05-08 22:43 39.72029 -105.52367 39905 ft 461 kts 261°
2026-05-08 22:43 39.70426 -105.60433 39918 ft 462 kts 261°
2026-05-08 22:44 39.68814 -105.68512 39901 ft 461 kts 261°
2026-05-08 22:44 39.67202 -105.76561 39910 ft 459 kts 261°
2026-05-08 22:45 39.65601 -105.84526 39889 ft 458 kts 261°
2026-05-08 22:45 39.63990 -105.92513 39906 ft 457 kts 261°
2026-05-08 22:46 39.62375 -106.00482 39898 ft 455 kts 261°
2026-05-08 22:46 39.61022 -106.07137 39910 ft 456 kts 261°
2026-05-08 22:47 39.59411 -106.15040 39900 ft 456 kts 261°
2026-05-08 22:47 39.57782 -106.22995 39934 ft 457 kts 261°
2026-05-08 22:48 39.56142 -106.30977 39914 ft 458 kts 261°
2026-05-08 22:48 39.54495 -106.38956 39917 ft 458 kts 260°
2026-05-08 22:49 39.52843 -106.46951 39865 ft 459 kts 260°
2026-05-08 22:49 39.50369 -106.58836 39902 ft 457 kts 260°
2026-05-08 22:50 39.48715 -106.66744 39915 ft 460 kts 260°
2026-05-08 22:50 39.47035 -106.74766 39906 ft 463 kts 260°
2026-05-08 22:51 39.45338 -106.82825 39896 ft 464 kts 260°
2026-05-08 22:51 39.43636 -106.90900 39991 ft 465 kts 261°
2026-05-08 22:52 39.42069 -106.98994 39974 ft 463 kts 261°
2026-05-08 22:52 39.40556 -107.07019 39923 ft 462 kts 261°
2026-05-08 22:53 39.39015 -107.15065 39902 ft 460 kts 261°
2026-05-08 22:53 39.37462 -107.23079 39858 ft 459 kts 261°
2026-05-08 22:54 39.35903 -107.31095 39854 ft 459 kts 261°
2026-05-08 22:54 39.34345 -107.39077 39859 ft 458 kts 261°
2026-05-08 22:55 39.32779 -107.47053 39881 ft 458 kts 261°
2026-05-08 22:55 39.31205 -107.55034 39870 ft 458 kts 261°
2026-05-08 22:56 39.29632 -107.63008 39884 ft 458 kts 261°
2026-05-08 22:56 39.28059 -107.70938 39899 ft 460 kts 261°
2026-05-08 22:57 39.26462 -107.78943 39891 ft 461 kts 260°
2026-05-08 22:57 39.24860 -107.86953 39901 ft 462 kts 260°
2026-05-08 22:58 39.23248 -107.94988 39889 ft 463 kts 260°
2026-05-08 22:58 39.21629 -108.03023 39871 ft 463 kts 260°
2026-05-08 22:59 39.20013 -108.11006 39883 ft 463 kts 260°
2026-05-08 22:59 39.18383 -108.19030 39902 ft 462 kts 260°
2026-05-08 23:00 39.16752 -108.27031 39941 ft 462 kts 260°
2026-05-08 23:00 39.15115 -108.35023 39976 ft 461 kts 260°
2026-05-08 23:01 39.13478 -108.43004 39980 ft 461 kts 260°
2026-05-08 23:01 39.11836 -108.50972 39992 ft 460 kts 260°
2026-05-08 23:02 39.10197 -108.58892 39974 ft 461 kts 259°
2026-05-08 23:02 39.08540 -108.66875 39962 ft 461 kts 259°
2026-05-08 23:03 39.06877 -108.74859 39930 ft 463 kts 259°
2026-05-08 23:03 39.06045 -108.78865 39822 ft 462 kts 260°
2026-05-08 23:03 39.05368 -108.82897 39835 ft 460 kts 263°
2026-05-08 23:04 39.04190 -108.90988 39832 ft 460 kts 264°
2026-05-08 23:04 39.03031 -108.99045 39826 ft 461 kts 264°
2026-05-08 23:05 39.01836 -109.07191 39833 ft 461 kts 263°
2026-05-08 23:05 39.00639 -109.15236 39814 ft 461 kts 263°
2026-05-08 23:06 38.99423 -109.23348 39824 ft 462 kts 263°
2026-05-08 23:06 38.98200 -109.31466 39828 ft 462 kts 263°
2026-05-08 23:07 38.96970 -109.39592 39829 ft 463 kts 263°
2026-05-08 23:07 38.95743 -109.47665 39824 ft 463 kts 263°
2026-05-08 23:08 38.94503 -109.55786 39844 ft 462 kts 263°
2026-05-08 23:08 38.93259 -109.63888 39841 ft 462 kts 263°
2026-05-08 23:09 38.92011 -109.71982 39916 ft 462 kts 263°
2026-05-08 23:09 38.90754 -109.80090 39907 ft 462 kts 263°
2026-05-08 23:10 38.89495 -109.88176 39911 ft 462 kts 262°
2026-05-08 23:10 38.88237 -109.96216 39901 ft 462 kts 262°
2026-05-08 23:11 38.86965 -110.04311 39879 ft 463 kts 262°
2026-05-08 23:11 38.85684 -110.12417 39851 ft 463 kts 262°
2026-05-08 23:12 38.84399 -110.20524 39824 ft 464 kts 262°
2026-05-08 23:12 38.83106 -110.28638 39831 ft 464 kts 262°
2026-05-08 23:13 38.81803 -110.36754 39836 ft 465 kts 262°
2026-05-08 23:13 38.80494 -110.44869 39843 ft 465 kts 262°
2026-05-08 23:14 38.79191 -110.52925 39836 ft 464 kts 262°
2026-05-08 23:14 38.77873 -110.61026 39859 ft 464 kts 262°
2026-05-08 23:15 38.76549 -110.69135 39867 ft 464 kts 262°
2026-05-08 23:15 38.75222 -110.77229 39879 ft 465 kts 262°
2026-05-08 23:16 38.73886 -110.85334 39870 ft 465 kts 262°
2026-05-08 23:16 38.72544 -110.93441 39878 ft 465 kts 262°
2026-05-08 23:17 38.71194 -111.01561 39892 ft 466 kts 261°
2026-05-08 23:17 38.69838 -111.09680 39891 ft 466 kts 262°
2026-05-08 23:18 38.68476 -111.17788 39920 ft 466 kts 262°
2026-05-08 23:18 38.67122 -111.25817 39915 ft 464 kts 262°
2026-05-08 23:19 38.65758 -111.33865 39942 ft 462 kts 261°
2026-05-08 23:19 38.64394 -111.41888 39953 ft 461 kts 261°
2026-05-08 23:20 38.63028 -111.49891 39957 ft 460 kts 261°
2026-05-08 23:20 38.61657 -111.57886 39976 ft 459 kts 261°
2026-05-08 23:21 38.60290 -111.65822 39981 ft 459 kts 261°
2026-05-08 23:21 38.58908 -111.73797 39978 ft 459 kts 261°
2026-05-08 23:22 38.57522 -111.81782 39975 ft 461 kts 261°
2026-05-08 23:22 38.56127 -111.89779 39974 ft 461 kts 261°
2026-05-08 23:23 38.54723 -111.97779 39978 ft 461 kts 261°
2026-05-08 23:23 38.53316 -112.05780 39979 ft 461 kts 261°
2026-05-08 23:24 38.51909 -112.13741 39960 ft 463 kts 261°
2026-05-08 23:24 38.50486 -112.21754 39962 ft 463 kts 261°
2026-05-08 23:25 38.49059 -112.29760 39968 ft 463 kts 261°
2026-05-08 23:25 38.47624 -112.37773 39963 ft 462 kts 261°
2026-05-08 23:26 38.46184 -112.45783 39944 ft 463 kts 261°
2026-05-08 23:26 38.44740 -112.53782 39945 ft 463 kts 261°
2026-05-08 23:27 38.43290 -112.61777 39958 ft 462 kts 261°
2026-05-08 23:27 38.41848 -112.69701 39981 ft 462 kts 261°
2026-05-08 23:28 38.40391 -112.77673 39997 ft 461 kts 261°
2026-05-08 23:28 38.38932 -112.85630 40019 ft 461 kts 261°
2026-05-08 23:29 38.37466 -112.93592 40035 ft 461 kts 261°
2026-05-08 23:29 38.36049 -113.01557 40039 ft 459 kts 264°
2026-05-08 23:30 38.35347 -113.09607 40035 ft 456 kts 268°
2026-05-08 23:30 38.34788 -113.17649 39998 ft 456 kts 268°
2026-05-08 23:31 38.34209 -113.25651 39965 ft 456 kts 268°
2026-05-08 23:31 38.33600 -113.33713 39917 ft 457 kts 268°
2026-05-08 23:32 38.32978 -113.41781 39882 ft 457 kts 268°
2026-05-08 23:32 38.32350 -113.49862 39855 ft 458 kts 268°
2026-05-08 23:33 38.31717 -113.57930 39867 ft 458 kts 268°
2026-05-08 23:33 38.31081 -113.65970 39852 ft 459 kts 268°
2026-05-08 23:34 38.30438 -113.74050 39856 ft 458 kts 268°
2026-05-08 23:34 38.29787 -113.82130 39860 ft 458 kts 268°
2026-05-08 23:35 38.29245 -113.88823 39887 ft 457 kts 268°
2026-05-08 23:35 38.28588 -113.96867 39885 ft 456 kts 268°
2026-05-08 23:36 38.27925 -114.04905 39892 ft 457 kts 268°
2026-05-08 23:36 38.27257 -114.12947 39888 ft 457 kts 268°
2026-05-08 23:37 38.26589 -114.20929 39886 ft 457 kts 268°
2026-05-08 23:37 38.25912 -114.28969 39890 ft 457 kts 268°
2026-05-08 23:38 38.24956 -114.36997 39894 ft 462 kts 258°
2026-05-08 23:38 38.22621 -114.44685 39882 ft 471 kts 246°
2026-05-08 23:39 38.19271 -114.51883 39884 ft 473 kts 243°
2026-05-08 23:39 38.15811 -114.59017 39873 ft 474 kts 243°
2026-05-08 23:40 38.12370 -114.66171 39871 ft 474 kts 243°
2026-05-08 23:40 38.08983 -114.73275 39864 ft 473 kts 243°
2026-05-08 23:41 38.05582 -114.80423 39862 ft 473 kts 243°
2026-05-08 23:41 38.02178 -114.87564 39865 ft 473 kts 243°
2026-05-08 23:42 37.98768 -114.94700 39854 ft 473 kts 243°
2026-05-08 23:42 37.95352 -115.01829 39834 ft 473 kts 243°
2026-05-08 23:43 37.91926 -115.08965 39840 ft 474 kts 243°
2026-05-08 23:43 37.88491 -115.16099 39850 ft 473 kts 243°
2026-05-08 23:44 37.85060 -115.23211 39850 ft 473 kts 243°
2026-05-08 23:44 37.81648 -115.30271 39844 ft 473 kts 243°
2026-05-08 23:45 37.78210 -115.37369 39840 ft 473 kts 243°
2026-05-08 23:45 37.74762 -115.44471 39852 ft 473 kts 243°
2026-05-08 23:46 37.71319 -115.51547 39845 ft 473 kts 243°
2026-05-08 23:46 37.67870 -115.58622 39862 ft 473 kts 243°
2026-05-08 23:47 37.64412 -115.65701 39854 ft 474 kts 243°
2026-05-08 23:47 37.60948 -115.72774 39855 ft 474 kts 243°
2026-05-08 23:48 37.57503 -115.79792 39862 ft 474 kts 243°
2026-05-08 23:48 37.54034 -115.86847 39861 ft 474 kts 243°
2026-05-08 23:49 37.50553 -115.93910 39864 ft 473 kts 243°
2026-05-08 23:49 37.47077 -116.00948 39859 ft 473 kts 243°
2026-05-08 23:50 37.43596 -116.07981 39870 ft 473 kts 243°
2026-05-08 23:50 37.40107 -116.15015 39900 ft 474 kts 242°
2026-05-08 23:51 37.36606 -116.22061 39877 ft 476 kts 242°
2026-05-08 23:51 37.33113 -116.29074 39872 ft 476 kts 242°
2026-05-08 23:52 37.29593 -116.36124 39881 ft 476 kts 242°
2026-05-08 23:52 37.26069 -116.43170 39876 ft 477 kts 242°
2026-05-08 23:53 37.22538 -116.50212 39890 ft 477 kts 242°
2026-05-08 23:53 37.18997 -116.57260 39881 ft 476 kts 242°
2026-05-08 23:54 37.15464 -116.64279 39859 ft 476 kts 242°
2026-05-08 23:55 37.10186 -116.74734 39862 ft 474 kts 242°
2026-05-08 23:55 37.06654 -116.81714 39848 ft 475 kts 242°
2026-05-08 23:56 37.03115 -116.88695 39833 ft 475 kts 242°
2026-05-08 23:56 36.99565 -116.95681 39827 ft 476 kts 242°
2026-05-08 23:57 36.96001 -117.02679 39823 ft 477 kts 242°
2026-05-08 23:57 36.92435 -117.09668 39819 ft 478 kts 242°
2026-05-08 23:58 36.88857 -117.16670 39818 ft 477 kts 242°
2026-05-08 23:58 36.85275 -117.23655 39816 ft 477 kts 241°
2026-05-08 23:59 36.81718 -117.30579 39815 ft 476 kts 241°
2026-05-08 23:59 36.78139 -117.37535 39825 ft 477 kts 241°
2026-05-09 00:00 36.74546 -117.44503 39821 ft 476 kts 241°
2026-05-09 00:00 36.70961 -117.51445 39812 ft 477 kts 241°
2026-05-09 00:01 36.67368 -117.58385 39812 ft 477 kts 241°
2026-05-09 00:01 36.63756 -117.65346 39810 ft 477 kts 241°
2026-05-09 00:02 36.60145 -117.72292 39825 ft 479 kts 241°
2026-05-09 00:02 36.56544 -117.79208 39834 ft 479 kts 241°
2026-05-09 00:03 36.52906 -117.86177 39847 ft 480 kts 241°
2026-05-09 00:03 36.49267 -117.93131 39870 ft 480 kts 240°
2026-05-09 00:04 36.45622 -118.00084 39861 ft 480 kts 240°
2026-05-09 00:04 36.41971 -118.07036 39885 ft 480 kts 240°
2026-05-09 00:05 36.38322 -118.13972 39920 ft 478 kts 240°
2026-05-09 00:05 36.36497 -118.17440 39385 ft 487 kts 240°
2026-05-09 00:05 36.34638 -118.20966 38714 ft 490 kts 240°
2026-05-09 00:05 36.32770 -118.24499 37799 ft 489 kts 240°
2026-05-09 00:06 36.30897 -118.28038 36905 ft 489 kts 240°
2026-05-09 00:06 36.29031 -118.31559 36055 ft 488 kts 240°
2026-05-09 00:06 36.27165 -118.35082 35057 ft 490 kts 240°
2026-05-09 00:06 36.25304 -118.38593 33971 ft 493 kts 240°
2026-05-09 00:07 36.23414 -118.42153 32728 ft 496 kts 240°
2026-05-09 00:07 36.21511 -118.45735 31556 ft 498 kts 240°
2026-05-09 00:07 36.19600 -118.49328 30424 ft 499 kts 240°
2026-05-09 00:07 36.17698 -118.52895 29466 ft 494 kts 240°
2026-05-09 00:08 36.15817 -118.56421 28530 ft 488 kts 240°
2026-05-09 00:08 36.13961 -118.59898 27688 ft 480 kts 240°
2026-05-09 00:08 36.12132 -118.63323 26864 ft 474 kts 239°
2026-05-09 00:08 36.10327 -118.66698 26048 ft 468 kts 239°
2026-05-09 00:09 36.08543 -118.70034 25264 ft 462 kts 238°
2026-05-09 00:09 36.06772 -118.73343 24220 ft 463 kts 238°
2026-05-09 00:09 36.04995 -118.76661 23236 ft 462 kts 238°
2026-05-09 00:09 36.03273 -118.79857 22380 ft 434 kts 238°
2026-05-09 00:10 36.01643 -118.82890 21813 ft 425 kts 238°
2026-05-09 00:10 36.00020 -118.85913 21161 ft 419 kts 238°
2026-05-09 00:10 35.98417 -118.88895 20499 ft 415 kts 239°
2026-05-09 00:10 35.96945 -118.91897 19772 ft 403 kts 249°
2026-05-09 00:11 35.96270 -118.95210 19132 ft 397 kts 267°
2026-05-09 00:11 35.96462 -118.98576 18467 ft 394 kts 283°
2026-05-09 00:11 35.97402 -119.01734 17703 ft 392 kts 299°
2026-05-09 00:11 35.98984 -119.04459 16973 ft 389 kts 312°
2026-05-09 00:12 36.01005 -119.06655 16277 ft 387 kts 326°
2026-05-09 00:12 36.03409 -119.08048 15617 ft 378 kts 339°
2026-05-09 00:12 36.05868 -119.09171 14972 ft 376 kts 339°
2026-05-09 00:12 36.08324 -119.10288 14331 ft 375 kts 339°
2026-05-09 00:13 36.10770 -119.11410 13659 ft 375 kts 339°
2026-05-09 00:13 36.13214 -119.12546 12951 ft 374 kts 339°
2026-05-09 00:13 36.15634 -119.13683 12283 ft 371 kts 338°
2026-05-09 00:13 36.18014 -119.14810 11646 ft 369 kts 338°
2026-05-09 00:14 36.20406 -119.15948 11000 ft 367 kts 338°
2026-05-09 00:14 36.22754 -119.17067 10781 ft 353 kts 338°
2026-05-09 00:14 36.25005 -119.18143 10604 ft 339 kts 338°
2026-05-09 00:14 36.27163 -119.19176 10461 ft 327 kts 338°
2026-05-09 00:15 36.29246 -119.20173 10323 ft 314 kts 338°
2026-05-09 00:15 36.31251 -119.21134 10189 ft 304 kts 338°
2026-05-09 00:15 36.33185 -119.22062 10064 ft 293 kts 338°
2026-05-09 00:15 36.35063 -119.22963 9814 ft 288 kts 338°
2026-05-09 00:16 36.36925 -119.23858 9482 ft 286 kts 338°
2026-05-09 00:16 36.38738 -119.24729 9137 ft 275 kts 338°
2026-05-09 00:16 36.40522 -119.25585 8818 ft 274 kts 338°
2026-05-09 00:16 36.42294 -119.26438 8499 ft 272 kts 338°
2026-05-09 00:17 36.44034 -119.27275 8188 ft 271 kts 339°
2026-05-09 00:17 36.45809 -119.28131 7864 ft 270 kts 339°
2026-05-09 00:17 36.47535 -119.28961 7546 ft 269 kts 339°
2026-05-09 00:17 36.49278 -119.29799 7236 ft 268 kts 339°
2026-05-09 00:18 36.51017 -119.30637 6921 ft 267 kts 339°
2026-05-09 00:18 36.52746 -119.31470 6603 ft 266 kts 339°
2026-05-09 00:18 36.54461 -119.32315 6278 ft 261 kts 334°
2026-05-09 00:18 36.55841 -119.33719 5950 ft 256 kts 308°
2026-05-09 00:19 36.56852 -119.35525 5663 ft 254 kts 307°
2026-05-09 00:19 36.57890 -119.37322 5356 ft 257 kts 307°
2026-05-09 00:19 36.58941 -119.39130 5063 ft 259 kts 307°
2026-05-09 00:19 36.59997 -119.40949 4740 ft 258 kts 308°
2026-05-09 00:20 36.61041 -119.42753 4414 ft 256 kts 306°
2026-05-09 00:20 36.62085 -119.44556 4120 ft 255 kts 306°
2026-05-09 00:20 36.63121 -119.46347 3801 ft 254 kts 306°
2026-05-09 00:20 36.64124 -119.48089 3698 ft 246 kts 306°
2026-05-09 00:21 36.65110 -119.49795 3545 ft 238 kts 306°
2026-05-09 00:21 36.66052 -119.51431 3480 ft 228 kts 306°
2026-05-09 00:21 36.66964 -119.53012 3347 ft 220 kts 306°
2026-05-09 00:21 36.67840 -119.54522 3251 ft 209 kts 306°
2026-05-09 00:22 36.68681 -119.55979 3031 ft 205 kts 306°
2026-05-09 00:22 36.69500 -119.57414 2776 ft 202 kts 306°
2026-05-09 00:22 36.70300 -119.58814 2500 ft 193 kts 306°
2026-05-09 00:22 36.71045 -119.60123 2299 ft 180 kts 306°
2026-05-09 00:23 36.71757 -119.61363 2049 ft 171 kts 307°
2026-05-09 00:23 36.72205 -119.62151 1903 ft 166 kts 307°
2026-05-09 00:23 36.72871 -119.63316 1694 ft 161 kts 306°
2026-05-09 00:23 36.73476 -119.64382 1493 ft 138 kts 306°
2026-05-09 00:24 36.74005 -119.65307 1311 ft 125 kts 304°
2026-05-09 00:24 36.74497 -119.66171 1182 ft 124 kts 309°
2026-05-09 00:24 36.75027 -119.67099 1012 ft 137 kts 308°
2026-05-09 00:24 36.75562 -119.68039 821 ft 129 kts 309°
2026-05-09 00:25 36.76097 -119.68973 660 ft 133 kts 307°
2026-05-09 00:25 36.76601 -119.69871 477 ft 123 kts 307°
2026-05-09 00:25 36.77095 -119.70734 371 ft 124 kts 309°
2026-05-09 00:25 36.77561 -119.71530 354 ft 95 kts 306°
2026-05-09 00:26 36.77838 -119.72012 336 ft 49 kts 304°
2026-05-09 00:26 36.77997 -119.72306 334 ft 11 kts 304°
2026-05-09 00:26 36.77996 -119.72387 334 ft 10 kts 223°
2026-05-09 00:26 36.77937 -119.72440 336 ft 10 kts 215°
2026-05-09 00:27 36.77877 -119.72493 351 ft 11 kts 215°
2026-05-09 00:27 36.77814 -119.72549 356 ft 9 kts 217°
2026-05-09 00:27 36.77806 -119.72612 349 ft 8 kts 295°
2026-05-09 00:27 36.77836 -119.72674 346 ft 9 kts 302°
2026-05-09 00:28 36.77871 -119.72738 354 ft 9 kts 303°
2026-05-09 00:28 36.77909 -119.72800 350 ft 9 kts 308°
2026-05-09 00:28 36.77943 -119.72863 356 ft 8 kts 289°
2026-05-09 00:28 36.77921 -119.72910 357 ft 7 kts 223°
2026-05-09 00:29 36.77883 -119.72949 356 ft 8 kts 217°
2026-05-09 00:29 36.77831 -119.72962 354 ft 9 kts 147°
2026-05-09 00:29 36.77790 -119.72890 357 ft 12 kts 124°
2026-05-09 00:29 36.77761 -119.72848 356 ft 6 kts 153°
2026-05-09 00:30 36.77722 -119.72870 356 ft 7 kts 215°
2026-05-09 00:30 36.77694 -119.72895 358 ft 0 kts 215°